• In Austria
  • List of Countries
  • For 7 days
  • Water Temperature
  • Satellite Maps
  • Weather Map
  • News
  • Weather Widgets
  • user-avatar
    Login

    Hourly Weather San Miguel de Tucumán

    Today, 18 September, Tuesday

    Time Temperature Precipitation Wind Pressure Humidity
    00:00 +19°C° 0 mm 2 mps 716 mmHg 60%
    01:00 +19°C° 0 mm 2 mps 715 mmHg 60%
    02:00 +19°C° 0 mm 2 mps 715 mmHg 60%
    03:00 +19°C° 0 mm 2 mps 715 mmHg 58%
    04:00 +19°C° 0 mm 2 mps 714 mmHg 56%
    05:00 +18°C° 0 mm 2 mps 714 mmHg 55%
    06:00 +20°C° 0 mm 2 mps 714 mmHg 52%
    07:00 +21°C° 0 mm 2 mps 714 mmHg 49%
    08:00 +24°C° 0 mm 2 mps 714 mmHg 45%
    09:00 +26°C° 0 mm 2 mps 714 mmHg 41%
    10:00 +28°C° 0 mm 2 mps 714 mmHg 37%
    11:00 +31°C° 0 mm 2 mps 714 mmHg 33%
    12:00 +32°C° 0 mm 2 mps 713 mmHg 31%
    13:00 +34°C° 0 mm 2 mps 713 mmHg 29%
    14:00 +35°C° 0 mm 3 mps 712 mmHg 27%
    15:00 +35°C° 0 mm 3 mps 712 mmHg 28%
    16:00 +35°C° 0 mm 3 mps 711 mmHg 30%
    17:00 +34°C° 0 mm 3 mps 711 mmHg 31%
    18:00 +31°C° 0 mm 2 mps 711 mmHg 37%
    19:00 +29°C° 0 mm 2 mps 712 mmHg 43%
    20:00 +26°C° 0 mm 1 mps 712 mmHg 48%
    21:00 +26°C° 0 mm 1 mps 713 mmHg 49%
    22:00 +25°C° 0 mm 1 mps 713 mmHg 50%
    23:00 +25°C° 0 mm 1 mps 714 mmHg 51%

    Tomorrow, 19 September, Wednesday

    Time Temperature Precipitation Wind Pressure Humidity
    00:00 +24°C° 0.3 mm 1 mps 714 mmHg 50%
    01:00 +24°C° 0.3 mm 1 mps 714 mmHg 49%
    02:00 +23°C° 0.3 mm 2 mps 713 mmHg 48%
    03:00 +23°C° 0.1 mm 2 mps 714 mmHg 51%
    04:00 +21°C° 0.1 mm 2 mps 715 mmHg 54%
    05:00 +20°C° 0.1 mm 2 mps 715 mmHg 57%
    06:00 +20°C° 0.1 mm 2 mps 716 mmHg 59%
    07:00 +20°C° 0.1 mm 3 mps 717 mmHg 61%
    08:00 +20°C° 0.1 mm 3 mps 717 mmHg 63%
    09:00 +21°C° 0 mm 3 mps 718 mmHg 59%
    10:00 +22°C° 0 mm 3 mps 718 mmHg 54%
    11:00 +22°C° 0 mm 3 mps 719 mmHg 50%
    12:00 +24°C° 0 mm 3 mps 718 mmHg 47%
    13:00 +25°C° 0 mm 3 mps 718 mmHg 44%
    14:00 +26°C° 0 mm 3 mps 717 mmHg 42%
    15:00 +25°C° 0 mm 3 mps 717 mmHg 43%
    16:00 +25°C° 0 mm 3 mps 717 mmHg 45%
    17:00 +24°C° 0 mm 2 mps 717 mmHg 47%
    18:00 +23°C° 0 mm 2 mps 718 mmHg 52%
    19:00 +20°C° 0 mm 2 mps 718 mmHg 57%
    20:00 +19°C° 0 mm 2 mps 719 mmHg 61%
    21:00 +18°C° 0 mm 2 mps 720 mmHg 63%
    22:00 +19°C° 0 mm 1 mps 720 mmHg 65%
    23:00 +18°C° 0 mm 1 mps 721 mmHg 67%

    Day after tomorrow, 20 September, Thursday

    Time Temperature Precipitation Wind Pressure Humidity
    00:00 +18°C° 0 mm 1 mps 721 mmHg 68%
    01:00 +16°C° 0 mm 1 mps 720 mmHg 69%
    02:00 +16°C° 0 mm 1 mps 720 mmHg 70%
    03:00 +16°C° 0 mm 1 mps 720 mmHg 71%
    04:00 +15°C° 0 mm 1 mps 719 mmHg 73%
    05:00 +15°C° 0 mm 1 mps 719 mmHg 74%
    06:00 +16°C° 0 mm 1 mps 720 mmHg 71%
    07:00 +18°C° 0 mm 1 mps 721 mmHg 68%
    08:00 +19°C° 0 mm 1 mps 721 mmHg 64%
    09:00 +21°C° 0 mm 1 mps 722 mmHg 58%
    10:00 +23°C° 0 mm 1 mps 722 mmHg 52%
    11:00 +25°C° 0 mm 1 mps 722 mmHg 46%
    12:00 +26°C° 0 mm 2 mps 721 mmHg 44%
    13:00 +27°C° 0 mm 2 mps 720 mmHg 42%
    14:00 +28°C° 0 mm 2 mps 719 mmHg 40%
    15:00 +28°C° 0 mm 2 mps 719 mmHg 42%
    16:00 +27°C° 0 mm 2 mps 718 mmHg 44%
    17:00 +27°C° 0 mm 2 mps 718 mmHg 47%
    18:00 +25°C° 0 mm 2 mps 718 mmHg 54%
    19:00 +24°C° 0 mm 1 mps 719 mmHg 62%
    20:00 +22°C° 0 mm 1 mps 719 mmHg 69%
    21:00 +22°C° 0 mm 1 mps 719 mmHg 71%
    22:00 +21°C° 0 mm 1 mps 720 mmHg 73%
    23:00 +21°C° 0 mm 1 mps 720 mmHg 75%

    21 September, Friday

    Time Temperature Precipitation Wind Pressure Humidity
    00:00 +21°C° 0 mm 1 mps 720 mmHg 77%
    01:00 +21°C° 0 mm 1 mps 719 mmHg 78%
    02:00 +20°C° 0 mm 1 mps 719 mmHg 79%
    03:00 +20°C° 0 mm 1 mps 719 mmHg 80%
    04:00 +20°C° 0 mm 1 mps 718 mmHg 80%
    05:00 +20°C° 0 mm 1 mps 718 mmHg 80%
    06:00 +21°C° 0 mm 1 mps 719 mmHg 75%
    07:00 +23°C° 0 mm 1 mps 719 mmHg 69%
    08:00 +24°C° 0 mm 2 mps 720 mmHg 64%
    09:00 +26°C° 0 mm 2 mps 720 mmHg 58%
    10:00 +28°C° 0 mm 2 mps 720 mmHg 51%
    11:00 +30°C° 0 mm 3 mps 720 mmHg 45%
    12:00 +31°C° 0 mm 3 mps 719 mmHg 43%
    13:00 +33°C° 0 mm 3 mps 718 mmHg 40%
    14:00 +35°C° 0 mm 4 mps 718 mmHg 38%
    15:00 +34°C° 0 mm 4 mps 717 mmHg 39%
    16:00 +34°C° 0 mm 4 mps 717 mmHg 40%
    17:00 +33°C° 0 mm 4 mps 716 mmHg 42%
    18:00 +32°C° 0 mm 4 mps 716 mmHg 47%
    19:00 +29°C° 0 mm 3 mps 716 mmHg 53%
    20:00 +27°C° 0 mm 3 mps 717 mmHg 58%
    21:00 +27°C° 0 mm 3 mps 716 mmHg 59%
    22:00 +27°C° 0 mm 3 mps 716 mmHg 60%
    23:00 +26°C° 0 mm 3 mps 716 mmHg 62%

    22 September, Saturday

    Time Temperature Precipitation Wind Pressure Humidity
    00:00 +26°C° 0 mm 3 mps 716 mmHg 61%
    01:00 +26°C° 0 mm 3 mps 715 mmHg 60%
    02:00 +25°C° 0 mm 3 mps 714 mmHg 59%
    03:00 +25°C° 0 mm 2 mps 714 mmHg 58%
    04:00 +25°C° 0 mm 2 mps 714 mmHg 57%
    05:00 +24°C° 0 mm 2 mps 714 mmHg 55%
    06:00 +26°C° 0 mm 2 mps 714 mmHg 51%
    07:00 +27°C° 0 mm 2 mps 715 mmHg 47%
    08:00 +29°C° 0 mm 2 mps 715 mmHg 43%
    09:00 +31°C° 0 mm 2 mps 715 mmHg 38%
    10:00 +35°C° 0 mm 2 mps 715 mmHg 33%
    11:00 +37°C° 0 mm 2 mps 715 mmHg 28%
    12:00 +38°C° 0 mm 3 mps 715 mmHg 26%
    13:00 +39°C° 0 mm 3 mps 714 mmHg 24%
    14:00 +40°C° 0 mm 3 mps 713 mmHg 22%
    15:00 +40°C° 0 mm 3 mps 713 mmHg 24%
    16:00 +39°C° 0 mm 3 mps 713 mmHg 27%
    17:00 +38°C° 0 mm 3 mps 713 mmHg 29%
    18:00 +36°C° 0 mm 3 mps 713 mmHg 34%
    19:00 +34°C° 0 mm 2 mps 714 mmHg 40%
    20:00 +31°C° 0 mm 2 mps 714 mmHg 45%
    21:00 +30°C° 0 mm 2 mps 714 mmHg 46%
    22:00 +30°C° 0 mm 2 mps 714 mmHg 47%
    23:00 +29°C° 0 mm 2 mps 714 mmHg 49%

    23 September, Sunday

    Time Temperature Precipitation Wind Pressure Humidity
    00:00 +29°C° 0 mm 1 mps 714 mmHg 48%
    01:00 +28°C° 0 mm 1 mps 714 mmHg 47%
    02:00 +28°C° 0 mm 1 mps 714 mmHg 47%
    03:00 +27°C° 0 mm 1 mps 714 mmHg 45%
    04:00 +27°C° 0 mm 1 mps 714 mmHg 42%
    05:00 +26°C° 0 mm 1 mps 714 mmHg 40%
    06:00 +28°C° 0 mm 1 mps 714 mmHg 38%
    07:00 +29°C° 0 mm 1 mps 715 mmHg 35%
    08:00 +31°C° 0 mm 1 mps 716 mmHg 33%
    09:00 +33°C° 0 mm 1 mps 716 mmHg 31%
    10:00 +35°C° 0 mm 1 mps 716 mmHg 29%
    11:00 +37°C° 0 mm 1 mps 716 mmHg 27%
    12:00 +39°C° 0 mm 1 mps 716 mmHg 26%
    13:00 +40°C° 0 mm 2 mps 715 mmHg 25%
    14:00 +40°C° 0 mm 2 mps 715 mmHg 25%
    15:00 +39°C° 0 mm 2 mps 715 mmHg 27%
    16:00 +38°C° 0 mm 2 mps 715 mmHg 30%
    17:00 +38°C° 0 mm 2 mps 715 mmHg 33%
    18:00 +35°C° 1.2 mm 3 mps 716 mmHg 41%
    19:00 +33°C° 1.2 mm 3 mps 717 mmHg 49%
    20:00 +30°C° 1.2 mm 3 mps 718 mmHg 57%
    21:00 +28°C° 2.7 mm 3 mps 718 mmHg 65%
    22:00 +27°C° 2.7 mm 3 mps 719 mmHg 72%
    23:00 +26°C° 2.7 mm 3 mps 720 mmHg 79%
    Show more